Tracking 23762 objects as of 22-Oct-2021
HD Live streaming from Space Station
objects crossing your sky now

FLOCK 4V 8

Track FLOCK 4V 8 now!
10-day predictions
FLOCK 4V 8 is classified as:


NORAD ID: 46288
Int'l Code: 2020-061S
Perigee: 537.2 km
Apogee: 542.1 km
Inclination: 97.5 °
Period: 95.3 minutes
Semi major axis: 6910 km
RCS: Unknown
Launch date: September 3, 2020
Source: United States (US)
Launch site: FRENCH GUIANA (FRGUI)
aabbcc
Your satellite tracking list
Your tracking list is empty




NASA's NSSDC Master Catalog

Two Line Element Set (TLE):
1 46288U 20061S   21294.45336152  .00001888  00000-0  11614-3 0  9995
2 46288  97.4776   5.0201 0003546  45.3305 314.8213 15.11224132 62288
Source of the keplerian elements: AFSPC